{"data":{"norad_id":58646,"intl_designator":"2023-205B","name":"TIANMU-1 12","alt_names":[],"object_type":"PAYLOAD","status":"ACTIVE","operator":null,"country":"PRC","launch_date":"2023-12-25","launch_site_code":"JSC","launch_vehicle":null,"mission":null,"orbit_class":"UNKNOWN","rcs_meters":null,"size_class":null,"mass_kg":null,"dimensions":null,"purposes":["earth_obs"],"wikipedia_slug":null,"has_3d_model":false,"image_url":null,"decayed_at":null,"tle_current":{"epoch":"2026-09-19T23:12:24.857568Z","epoch_age_seconds":60502,"freshness":"FRESH","line1":"1 58646U 23205B   26262.96695437  .00003509  00000+0  13312-3 0  9997","line2":"2 58646  97.3425 282.7867 0008035  27.6170 332.5494 15.27484268151970","mean_motion":15.27484268,"eccentricity":0.0008035,"inclination_deg":97.3425,"raan_deg":282.7867,"arg_perigee_deg":27.617,"mean_anomaly_deg":332.5494,"bstar":0.00013312,"rev_number":15197,"period_min":94.272656692265,"perigee_km":477.82257368995,"apogee_km":488.84896042661,"semimajor_km":6861.4727670583,"source":"CELESTRAK","updated_at":"2026-09-20T09:00:33.254274Z"}}}